Wind_Speed
4 4 4 6 7 7 8 9 10 11 11 8 6 4 3 10 16 16 16 14 13 14 12 7 7 6 6 4 3 3 1 2 4 5 4 3 5 2 4 3 6 4 5 4 7
4 5 6 7 8 8 8 9 9 9 9 8 5 4 3 3 12 16 14 12 12 12 12 11 9 5 4 3 2 2 2 5 4 3 4 11 9 9 6 12 4 7 11 9 10
5 6 7 8 9 9 9 9 9 9 8 6 6 5 8 6 4 12 12 11 11 12 11 10 10 5 4 3 3 1 3 3 7 11 10 7 13 12 10 10 10 12 10 10 16
6 7 8 9 9 9 9 9 9 8 5 4 5 7 11 4 3 8 10 9 10 10 10 8 10 4 3 2 2 2 5 5 6 7 6 7 10 11 16 16 20 19 16 15 22
7 8 9 10 10 10 10 9 8 7 2 2 5 4 6 8 6 6 8 8 9 9 10 10 12 3 2 1 4 2 3 4 12 19 16 17 15 14 11 18 17 20 17 17 23
8 9 10 11 11 11 9 9 7 5 0 2 4 4 2 4 5 6 7 7 8 8 8 8 5 5 2 1 0 2 9 14 11 8 9 5 6 1 7 9 12 17 20 20 24
8 9 10 11 12 11 11 9 6 1 2 2 6 3 5 3 3 4 5 6 9 9 8 7 6 4 3 2 3 3 5 7 3 4 5 2 4 4 4 5 9 18 12 15 19
9 10 11 12 10 12 11 8 1 4 3 3 4 3 1 3 3 4 5 7 11 9 11 5 5 3 3 5 4 3 2 6 6 7 3 1 9 9 13 8 18 22 14 13 16
9 11 12 13 10 12 10 3 3 5 5 3 4 2 0 2 4 6 9 10 11 9 7 4 2 3 3 3 3 4 6 7 8 2 4 1 10 9 17 19 18 20 16 14 13
9 11 12 13 10 10 8 4 7 5 5 4 4 2 2 4 7 7 10 11 10 10 3 5 3 2 3 4 5 6 6 6 10 5 6 12 14 14 20 15 15 18 21 17 15
9 11 12 11 10 11 7 3 3 2 3 4 5 4 4 9 3 8 11 11 6 5 4 6 4 2 4 3 5 6 5 12 15 13 6 10 15 14 21 17 15 16 20 17 15
8 10 12 10 9 10 7 2 3 5 4 3 3 3 5 10 3 9 13 7 5 3 4 4 1 2 4 5 4 7 10 9 10 4 4 9 16 10 12 13 10 8 11 15 15
7 9 10 10 6 9 9 4 3 7 3 1 2 2 4 7 4 7 12 7 1 3 2 3 3 3 2 6 7 7 4 7 7 7 2 12 5 8 21 12 12 19 17 14 15
6 8 9 9 4 11 9 7 4 4 4 4 3 2 4 7 1 6 11 4 2 2 3 4 3 4 4 4 2 5 2 7 4 2 5 10 3 5 20 20 22 25 21 19 15
5 6 8 7 5 9 8 4 2 1 2 2 3 3 6 3 4 6 12 1 2 4 2 4 5 4 3 4 2 7 10 1 2 1 1 13 2 2 16 20 25 29 24 19 15
6 5 5 6 6 10 8 1 1 5 2 2 2 5 4 7 5 8 4 7 1 3 3 4 5 2 3 4 0 11 3 3 3 1 3 9 3 5 11 17 21 24 20 18 14
8 7 6 4 5 9 6 1 4 4 3 2 2 4 1 4 4 6 4 6 4 6 6 7 4 4 3 5 4 10 6 4 4 6 3 5 3 4 15 21 15 17 19 15 13
9 8 7 6 5 8 3 3 2 2 4 1 2 1 3 5 4 7 2 4 4 4 2 4 6 6 6 2 3 4 3 3 1 3 6 7 7 6 11 19 23 20 19 19 18
10 9 8 7 5 4 0 2 5 5 4 4 2 3 3 3 2 5 2 1 1 2 3 3 5 5 0 3 2 2 4 2 3 1 3 3 1 4 17 20 26 26 29 26 24
10 8 10 8 7 2 3 4 3 3 5 3 3 1 1 3 4 4 1 1 2 1 2 2 4 2 5 1 5 4 3 1 3 5 5 5 3 9 13 16 16 17 21 26 24
8 4 6 10 8 3 3 6 4 5 4 4 5 3 3 1 1 1 3 1 1 3 2 3 2 5 2 4 2 3 3 4 1 1 1 5 3 5 1 9 11 15 18 23 25
6 1 8 12 4 0 4 6 6 6 4 2 4 3 5 5 2 2 3 3 1 2 2 1 3 4 4 5 3 1 2 3 2 2 0 1 3 2 2 5 7 9 13 17 20
5 5 10 14 4 3 3 2 7 5 5 5 5 3 3 5 1 4 2 2 3 1 1 3 1 3 5 2 2 2 1 2 2 1 2 1 2 1 2 3 7 7 9 13 16
6 1 6 13 5 6 5 5 5 6 5 5 5 5 3 3 3 1 2 2 2 0 2 4 3 4 4 4 1 5 4 1 2 1 1 4 4 2 3 2 3 6 8 12 15
12 6 7 4 6 5 6 8 7 6 4 8 1 5 6 4 2 4 3 2 1 2 2 3 3 3 6 10 4 6 14 6 6 4 3 2 3 2 2 2 2 5 8 12 14
15 8 7 3 4 11 7 8 11 4 8 5 5 9 6 7 7 5 4 3 4 2 2 2 1 2 4 1 4 6 8 6 5 4 5 4 4 3 2 3 6 6 8 11 13
28 18 10 8 6 6 6 7 10 11 9 6 11 6 6 11 11 6 6 4 3 5 3 1 1 3 4 4 9 4 4 5 3 4 4 4 4 5 3 5 6 7 9 12 14
Wind_Direction
357 350 321 315 320 327 329 337 341 351 360 9 38 69 107 55 48 45 43 40 36 31 31 28 12 36 96 125 119 154 139 216 239 230 246 12 3 319 342 308 316 266 268 239 190
345 343 328 326 321 320 326 335 337 345 359 17 38 45 25 112 50 38 32 29 28 26 25 29 32 46 82 92 108 106 172 221 238 273 292 306 306 302 306 303 290 279 271 265 198
344 341 329 328 326 327 328 328 330 346 1 25 42 40 13 170 49 16 19 23 21 18 17 27 25 50 72 59 28 135 221 224 265 274 282 268 278 276 269 263 264 274 264 233 196
340 345 336 332 326 327 331 322 330 347 358 35 60 74 55 97 78 11 21 25 26 28 29 39 33 62 68 39 353 317 263 250 264 281 289 282 286 277 260 258 272 272 273 254 208
355 348 339 337 334 332 327 323 329 339 344 87 81 98 73 74 60 34 31 28 25 23 23 26 34 53 63 355 339 174 280 286 276 287 280 273 258 256 272 267 262 262 266 255 243
356 348 346 341 336 333 329 324 325 332 331 122 134 78 101 73 45 31 27 17 8 7 9 20 24 18 97 287 254 305 288 289 290 276 277 251 274 65 285 308 266 276 270 262 256
350 351 347 343 340 340 337 328 328 341 131 118 171 115 70 54 7 8 11 8 358 356 359 358 16 28 335 332 311 293 316 309 241 302 295 217 288 249 298 317 331 337 308 266 251
354 352 351 348 342 344 343 334 350 137 151 107 151 173 127 36 26 10 359 357 351 350 346 349 5 39 28 318 344 359 49 334 295 304 256 346 286 274 306 308 314 313 304 298 250
353 354 354 352 348 348 349 23 137 135 140 149 165 171 158 9 1 348 348 343 340 341 353 1 18 52 33 30 5 14 307 301 310 295 310 279 292 273 290 299 299 296 295 297 280
352 354 356 355 351 355 357 71 131 126 143 116 122 160 31 332 328 334 334 334 336 334 334 9 27 60 66 38 342 302 307 284 279 269 284 283 266 276 290 288 283 289 286 285 279
348 353 354 352 356 7 15 142 152 118 112 121 107 97 4 359 39 9 349 335 344 10 18 353 42 333 284 214 246 270 263 275 284 286 293 273 289 292 303 305 289 286 291 295 281
345 349 350 351 4 17 11 152 136 143 110 95 95 47 8 5 349 18 359 358 2 354 360 5 280 239 271 267 280 284 299 295 298 322 249 326 307 309 7 335 340 3 347 324 308
337 343 349 352 357 11 25 48 138 146 115 65 4 3 1 352 352 347 359 338 350 357 20 220 267 303 337 318 336 304 255 323 299 334 54 345 346 355 354 357 358 351 341 325 304
318 336 346 358 9 360 12 21 135 130 82 310 352 28 337 328 21 358 356 349 334 311 333 243 297 337 321 272 317 308 188 319 312 360 16 18 305 10 0 351 347 342 336 322 300
293 322 338 356 4 9 350 5 132 35 47 291 321 3 4 44 322 13 13 352 275 302 81 273 326 344 315 298 245 266 327 44 89 346 329 13 328 327 11 349 336 328 335 326 311
276 293 321 329 339 358 351 345 84 46 252 10 356 360 31 23 20 341 353 17 6 21 352 262 303 249 270 318 201 308 20 62 75 314 38 352 332 334 355 339 318 322 337 338 336
268 282 297 292 317 346 352 112 41 125 21 314 340 24 78 335 357 28 20 11 41 10 7 330 311 300 320 336 9 10 11 357 22 9 302 337 324 4 347 330 323 332 349 359 30
257 271 282 276 283 334 352 65 204 167 211 72 35 318 77 13 14 355 40 22 35 56 15 17 335 6 350 34 293 7 40 97 21 345 312 339 350 328 334 335 351 10 14 27 37
255 266 264 254 247 314 241 61 218 196 167 160 81 70 5 23 39 29 40 249 261 59 37 11 277 312 290 332 355 357 32 114 119 278 286 300 6 209 7 355 356 7 13 16 34
259 267 253 231 222 235 92 234 219 182 130 111 159 145 111 308 28 41 307 262 314 88 173 194 297 255 292 159 42 84 147 31 41 22 340 317 358 332 3 342 350 7 10 9 40
256 249 223 201 194 187 178 217 209 207 157 144 179 142 167 198 176 290 244 253 177 330 166 136 127 289 300 26 323 3 26 40 122 70 345 317 32 326 27 311 351 1 10 23 43
212 217 197 178 150 323 176 189 174 162 175 141 125 147 172 167 210 237 236 217 147 292 354 92 149 280 267 306 267 141 115 95 72 321 243 283 292 326 310 290 352 5 15 34 53
215 208 191 185 169 219 255 212 180 144 180 165 173 180 182 167 180 187 231 200 71 59 188 180 332 328 352 7 5 43 82 125 126 111 222 320 342 72 310 25 3 23 36 49 68
187 189 178 200 220 160 164 200 196 194 160 159 150 136 135 172 198 189 239 210 288 65 84 149 168 186 213 231 213 294 277 162 147 200 207 232 297 309 21 53 35 45 61 73 74
201 220 183 199 233 183 177 167 156 173 200 174 137 199 166 170 203 216 197 320 112 358 68 111 240 199 251 258 239 256 269 240 207 215 212 202 228 259 264 132 139 100 91 91 93
176 185 183 182 179 163 174 208 174 176 153 214 197 186 176 163 186 197 158 192 230 39 69 345 247 354 286 291 181 259 247 228 224 222 252 249 274 176 172 153 149 145 122 114 105
198 191 174 178 156 144 204 196 195 149 201 196 192 130 176 222 211 249 234 199 172 165 160 339 93 37 273 327 306 285 223 187 183 194 167 194 216 163 172 190 194 172 157 143 131
Height
1540 1539 1538 1537 1535 1534 1533 1532 1531 1529 1528 1526 1524 1524 1523 1522 1521 1519 1516 1518 1516 1514 1513 1512 1511 1511 1511 1512 1514 1515 1518 1522 1516 1514 1510 1508 1509 1509 1508 1508 1508 1507 1506 1508 1506
1540 1538 1537 1536 1535 1534 1532 1530 1530 1529 1527 1525 1524 1524 1523 1522 1521 1519 1519 1518 1516 1515 1514 1513 1511 1511 1511 1512 1514 1515 1519 1518 1514 1512 1511 1510 1509 1509 1509 1506 1505 1505 1503 1503 1504
1539 1538 1537 1535 1534 1532 1531 1529 1529 1528 1526 1525 1524 1523 1522 1521 1522 1521 1520 1518 1517 1516 1514 1513 1511 1511 1512 1513 1515 1516 1517 1514 1512 1510 1509 1508 1507 1507 1504 1505 1504 1504 1503 1502 1504
1539 1537 1536 1534 1533 1531 1529 1529 1527 1527 1526 1525 1525 1524 1523 1522 1527 1522 1521 1520 1518 1516 1515 1513 1511 1511 1514 1515 1515 1517 1513 1513 1511 1509 1507 1506 1504 1501 1500 1501 1502 1501 1501 1500 1502
1537 1536 1535 1533 1531 1529 1528 1527 1526 1526 1526 1525 1525 1524 1524 1524 1524 1522 1521 1520 1518 1517 1515 1514 1512 1512 1514 1515 1515 1515 1512 1510 1508 1505 1504 1502 1501 1498 1496 1497 1497 1497 1496 1497 1497
1536 1535 1534 1532 1529 1528 1526 1525 1525 1525 1525 1525 1525 1525 1525 1525 1524 1522 1521 1520 1519 1517 1516 1515 1514 1513 1514 1514 1515 1513 1511 1507 1502 1501 1500 1499 1496 1496 1493 1491 1492 1492 1491 1491 1491
1536 1534 1533 1531 1528 1526 1525 1524 1523 1523 1524 1524 1525 1525 1525 1526 1524 1522 1521 1520 1518 1517 1516 1515 1514 1514 1513 1514 1513 1512 1510 1504 1500 1499 1498 1496 1495 1494 1491 1490 1489 1488 1487 1485 1485
1536 1534 1532 1530 1527 1525 1523 1522 1522 1523 1524 1524 1525 1525 1525 1524 1523 1522 1521 1519 1518 1516 1516 1514 1514 1513 1513 1514 1512 1512 1512 1510 1499 1498 1495 1496 1494 1489 1488 1488 1487 1485 1484 1482 1481
1535 1534 1531 1529 1526 1524 1523 1521 1522 1522 1523 1524 1525 1525 1525 1524 1523 1522 1520 1519 1518 1516 1515 1514 1514 1514 1515 1516 1516 1517 1515 1513 1505 1497 1497 1495 1492 1486 1486 1486 1485 1482 1481 1480 1478
1535 1533 1531 1528 1527 1524 1521 1521 1521 1523 1523 1524 1524 1527 1525 1524 1522 1521 1520 1518 1517 1516 1515 1515 1513 1515 1517 1518 1522 1518 1517 1512 1509 1497 1495 1493 1489 1484 1481 1482 1482 1480 1477 1478 1476
1534 1532 1530 1528 1526 1523 1521 1522 1525 1525 1523 1523 1524 1524 1524 1523 1522 1521 1519 1517 1516 1516 1519 1517 1517 1518 1515 1516 1516 1515 1516 1511 1500 1495 1497 1491 1486 1484 1481 1480 1478 1477 1476 1475 1475
1533 1532 1530 1528 1526 1523 1522 1521 1521 1523 1524 1523 1524 1524 1523 1522 1522 1521 1520 1518 1517 1520 1519 1521 1519 1513 1513 1512 1512 1510 1510 1505 1497 1495 1496 1492 1485 1483 1484 1479 1479 1477 1475 1473 1472
1532 1531 1529 1527 1526 1524 1523 1522 1521 1522 1523 1525 1524 1524 1524 1524 1522 1522 1520 1518 1518 1519 1521 1524 1515 1513 1512 1510 1509 1505 1507 1504 1504 1497 1497 1491 1486 1485 1484 1482 1481 1478 1475 1472 1470
1531 1530 1528 1527 1528 1524 1523 1522 1521 1522 1530 1528 1525 1525 1524 1522 1523 1522 1520 1520 1518 1519 1519 1520 1514 1513 1511 1510 1509 1509 1500 1502 1501 1500 1500 1498 1500 1490 1486 1481 1480 1478 1473 1468 1465
1530 1529 1527 1526 1526 1525 1526 1522 1522 1523 1544 1527 1525 1525 1523 1524 1524 1523 1522 1518 1519 1520 1522 1519 1516 1516 1513 1507 1507 1503 1498 1500 1502 1504 1501 1503 1503 1488 1489 1487 1484 1476 1472 1467 1462
1528 1528 1527 1526 1525 1525 1523 1523 1524 1533 1540 1528 1524 1525 1524 1524 1524 1523 1522 1520 1519 1519 1521 1520 1516 1516 1511 1506 1505 1500 1499 1501 1506 1506 1502 1512 1511 1494 1498 1498 1488 1477 1472 1465 1459
1525 1525 1525 1525 1525 1524 1523 1524 1533 1538 1530 1530 1529 1527 1529 1529 1527 1527 1527 1528 1531 1530 1533 1526 1517 1514 1513 1509 1505 1504 1504 1510 1505 1513 1509 1509 1506 1504 1506 1496 1487 1478 1472 1465 1459
1522 1523 1523 1523 1523 1523 1523 1526 1529 1529 1530 1527 1529 1529 1529 1532 1531 1530 1530 1533 1531 1534 1539 1539 1528 1519 1514 1515 1515 1516 1516 1524 1528 1525 1518 1509 1509 1506 1506 1496 1487 1481 1475 1467 1462
1519 1519 1520 1520 1521 1521 1524 1532 1526 1526 1524 1527 1529 1532 1533 1532 1535 1533 1534 1535 1532 1533 1537 1540 1534 1519 1517 1516 1516 1513 1520 1523 1528 1533 1526 1515 1504 1508 1501 1494 1488 1482 1474 1471 1468
1516 1517 1516 1518 1519 1520 1523 1527 1523 1521 1522 1524 1528 1530 1534 1536 1535 1536 1536 1532 1532 1532 1532 1535 1539 1522 1518 1518 1517 1515 1520 1520 1526 1533 1523 1508 1511 1509 1510 1504 1495 1489 1487 1480 1475
1514 1514 1513 1514 1517 1519 1525 1524 1520 1519 1521 1524 1528 1531 1532 1534 1536 1537 1535 1532 1531 1531 1531 1533 1538 1526 1520 1520 1521 1520 1519 1522 1526 1526 1527 1522 1510 1511 1512 1507 1503 1497 1493 1488 1482
1511 1513 1510 1513 1518 1519 1520 1515 1514 1517 1520 1521 1523 1525 1529 1531 1533 1535 1535 1531 1530 1531 1532 1533 1539 1538 1525 1521 1521 1520 1522 1525 1527 1526 1528 1526 1515 1512 1511 1509 1505 1502 1498 1495 1491
1507 1507 1508 1510 1516 1518 1513 1512 1512 1515 1517 1520 1522 1523 1525 1529 1533 1531 1531 1530 1529 1530 1531 1532 1537 1536 1524 1524 1521 1521 1522 1523 1527 1531 1525 1523 1510 1512 1511 1509 1506 1505 1502 1500 1498
1503 1505 1504 1506 1505 1506 1510 1511 1512 1511 1513 1515 1518 1521 1524 1527 1528 1529 1529 1529 1529 1529 1529 1530 1537 1533 1532 1527 1529 1526 1522 1523 1524 1524 1521 1519 1513 1509 1509 1509 1508 1506 1505 1504 1503
1496 1492 1492 1501 1500 1499 1502 1502 1507 1511 1511 1512 1517 1517 1520 1527 1528 1529 1529 1528 1528 1529 1530 1530 1534 1537 1530 1527 1528 1526 1520 1520 1521 1517 1514 1512 1514 1508 1507 1508 1508 1507 1507 1506 1505
1482 1485 1486 1489 1490 1494 1498 1501 1500 1504 1506 1510 1511 1511 1516 1520 1520 1524 1525 1528 1528 1530 1531 1533 1531 1536 1530 1522 1523 1520 1514 1515 1516 1513 1513 1512 1509 1505 1506 1507 1508 1508 1508 1508 1507
1468 1473 1476 1482 1488 1492 1492 1490 1493 1495 1501 1501 1504 1511 1515 1511 1514 1516 1519 1522 1524 1528 1531 1533 1534 1534 1526 1524 1519 1510 1503 1506 1504 1503 1503 1506 1501 1504 1506 1506 1506 1507 1508 1509 1509